| time (UTC) | temp F | wind direction | speed MPH | gust MPH | rain 1hr in | rain 24hr in | rain mn in | humidity % | barometer mb |
| 20260507025907 | 0 | 0.0 | 0.0 | 0.00 | 0.00 | 0.00 | 1014.5 | ||
| 20260507025901 | 10 | 307 | 100.0 | 78.0 | 0.00 | 0.00 | 0.00 | 68 | 1014.6 |
| 20260507024355 | 0 | 0.0 | 0.0 | 0.00 | 0.00 | 0.00 | 1014.5 | ||
| 20260507021348 | 0 | 0.0 | 8.0 | 0.00 | 0.00 | 0.00 | 1014.5 | ||
| 20260507015844 | 0 | 0.0 | 0.0 | 0.00 | 0.00 | 0.00 | 1014.1 | ||
| 20260507014339 | 0 | 0.0 | 5.0 | 0.00 | 0.00 | 0.00 | 1013.9 | ||
| 20260507012834 | 0 | 0.0 | 0.0 | 0.00 | 0.00 | 0.00 | 1013.7 | ||
| 20260507011328 | 0 | 0.0 | 0.0 | 0.00 | 0.00 | 0.00 | 1013.8 | ||
| 20260507005826 | 56 | 349 | 3.0 | 13.0 | 0.00 | 0.00 | 0.00 | 60 | 1013.1 |
| 20260507005822 | 0 | 0.0 | 0.0 | 0.00 | 0.00 | 0.00 | 1013.7 | ||
| 20260507004316 | 56 | 307 | 6.0 | 13.0 | 0.00 | 0.00 | 0.00 | 62 | 1013.6 |
| 20260507002922 | 56 | 322 | 9.0 | 17.0 | 0.00 | 0.00 | 0.00 | 58 | 1012.7 |
| 20260506235814 | 57 | 339 | 11.0 | 17.0 | 0.00 | 0.00 | 0.00 | 58 | 1012.6 |
| 20260506234318 | 58 | 297 | 5.0 | 10.0 | 0.00 | 0.00 | 0.00 | 61 | 1012.3 |
| 20260506234314 | 57 | 318 | 4.0 | 17.0 | 0.00 | 0.00 | 0.00 | 60 | 1012.3 |
| 20260506231308 | 58 | 312 | 6.0 | 13.0 | 0.00 | 0.00 | 0.00 | 61 | 1012.3 |
| 20260506225805 | 58 | 340 | 13.0 | 17.0 | 0.00 | 0.00 | 0.00 | 60 | 1012.6 |
| 20260506224300 | 58 | 292 | 5.0 | 20.0 | 0.00 | 0.00 | 0.00 | 61 | 1012.8 |
| 20260506222757 | 60 | 351 | 10.0 | 13.0 | 0.00 | 0.00 | 0.00 | 60 | 1012.8 |
| 20260506221253 | 0 | 0.0 | 8.0 | 0.00 | 0.00 | 0.00 | 1012.7 | ||
| 20260506221248 | 60 | 84 | 7.0 | 13.0 | 0.00 | 0.00 | 0.00 | 59 | 1012.6 |
| 20260506214244 | 60 | 355 | 5.0 | 10.0 | 0.00 | 0.00 | 0.00 | 57 | 1012.3 |
| 20260506212738 | 0 | 0.0 | 0.0 | 0.00 | 0.00 | 0.00 | 1012.0 | ||
| 20260506211232 | 62 | 13 | 6.0 | 8.0 | 0.00 | 0.00 | 0.00 | 56 | 1011.7 |
| 20260506205726 | 63 | 338 | 6.0 | 13.0 | 0.00 | 0.00 | 0.00 | 56 | 1011.8 |
| 20260506204221 | 0 | 0.0 | 0.0 | 0.00 | 0.00 | 0.00 | 1011.8 | ||
| 20260506202715 | 52 | 0.0 | 0.0 | 0.00 | 0.00 | 0.00 | 61 | 1012.0 | |
| 20260506201210 | 0 | 0.0 | 0.0 | 0.00 | 0.00 | 0.00 | 1011.9 | ||
| 20260506201204 | 63 | 303 | 9.0 | 10.0 | 0.00 | 0.00 | 0.00 | 52 | 1011.9 |
| 20260506194159 | 62 | 310 | 3.0 | 13.0 | 0.00 | 0.00 | 0.00 | 52 | 1011.8 |
| 20260506192657 | 62 | 16 | 9.0 | 15.0 | 0.00 | 0.00 | 0.00 | 52 | 1011.6 |
| 20260506192651 | 62 | 342 | 6.0 | 15.0 | 0.00 | 0.00 | 0.00 | 54 | 1011.7 |
| 20260506185645 | 62 | 145 | 7.0 | 13.0 | 0.00 | 0.00 | 0.00 | 56 | 1011.7 |
| 20260506184144 | 61 | 348 | 12.0 | 17.0 | 0.00 | 0.00 | 0.00 | 56 | 1011.8 |
| 20260506184138 | 61 | 316 | 6.0 | 23.0 | 0.00 | 0.00 | 0.00 | 61 | 1011.9 |
| 20260506181136 | 60 | 322 | 9.0 | 17.0 | 0.00 | 0.00 | 0.00 | 59 | 1012.0 |
| 20260506175635 | 60 | 18 | 5.0 | 13.0 | 0.00 | 0.00 | 0.00 | 62 | 1011.9 |
| 20260506174135 | 60 | 308 | 8.0 | 10.0 | 0.00 | 0.00 | 0.00 | 64 | 1012.0 |
| 20260506172629 | 0 | 0.0 | 0.0 | 0.00 | 0.00 | 0.00 | 1012.2 | ||
| 20260506171123 | 59 | 20 | 5.0 | 15.0 | 0.00 | 0.00 | 0.00 | 66 | 1012.0 |
| 20260506165622 | 57 | 18 | 6.0 | 10.0 | 0.00 | 0.00 | 0.00 | 68 | 1012.0 |
| 20260506164118 | 57 | 328 | 5.0 | 17.0 | 0.00 | 0.00 | 0.00 | 71 | 1012.2 |
| 20260506162617 | 56 | 341 | 10.0 | 20.0 | 0.00 | 0.00 | 0.00 | 72 | 1012.2 |
| 20260506161115 | 55 | 313 | 2.0 | 13.0 | 0.00 | 0.00 | 0.00 | 78 | 1012.1 |
| 20260506155614 | 54 | 317 | 5.0 | 15.0 | 0.00 | 0.00 | 0.00 | 80 | 1012.0 |
| 20260506154111 | 53 | 350 | 6.0 | 17.0 | 0.00 | 0.00 | 0.00 | 83 | 1012.0 |
| 20260506152609 | 53 | 318 | 3.0 | 13.0 | 0.00 | 0.00 | 0.00 | 86 | 1012.0 |
| 20260506151108 | 52 | 301 | 4.0 | 17.0 | 0.00 | 0.00 | 0.00 | 88 | 1011.6 |
| 20260506145607 | 52 | 321 | 2.0 | 15.0 | 0.00 | 0.00 | 0.00 | 88 | 1011.4 |
| 20260506144105 | 50 | 336 | 8.0 | 13.0 | 0.00 | 0.00 | 0.00 | 94 | 1011.1 |
| 20260506142607 | 49 | 356 | 3.0 | 10.0 | 0.00 | 0.00 | 0.00 | 99 | 1010.9 |
| 20260506142602 | 50 | 35 | 6.0 | 13.0 | 0.00 | 0.00 | 0.00 | 98 | 1010.9 |
| 20260506135557 | 49 | 11 | 0.0 | 8.0 | 0.00 | 0.00 | 0.00 | 99 | 1010.9 |
| 20260506134053 | 49 | 309 | 8.0 | 8.0 | 0.00 | 0.00 | 0.00 | 99 | 1010.6 |
| 20260506132546 | 49 | 299 | 4.0 | 5.0 | 0.00 | 0.00 | 0.00 | 99 | 1010.6 |
| 20260506131042 | 0 | 0.0 | 0.0 | 0.00 | 0.00 | 0.00 | 1010.4 | ||
| 20260506125535 | 0 | 0.0 | 0.0 | 0.00 | 0.00 | 0.00 | 1010.0 | ||
| 20260506124029 | 0 | 0.0 | 0.0 | 0.00 | 0.00 | 0.00 | 1009.7 | ||
| 20260506122522 | 0 | 0.0 | 0.0 | 0.00 | 0.00 | 0.00 | 1009.8 | ||
| 20260506121018 | 0 | 0.0 | 0.0 | 0.00 | 0.00 | 0.00 | 1009.5 | ||
| 20260506115509 | 73 | 0.0 | 0.0 | 0.00 | 0.00 | 0.00 | 46 | 1009.3 | |
| 20260506114005 | 0 | 0.0 | 0.0 | 0.00 | 0.00 | 0.00 | 1008.5 | ||
| 20260506112459 | 0 | 0.0 | 0.0 | 0.00 | 0.00 | 0.00 | 1008.4 | ||
| 20260506110953 | 56 | 0.0 | 0.0 | 0.00 | 0.00 | 0.00 | 8 | 1007.8 | |
| 20260506105446 | 0 | 0.0 | 0.0 | 0.00 | 0.00 | 0.00 | 1007.5 | ||
| 20260506105441 | 0 | 0.0 | 0.0 | 0.00 | 0.00 | 0.00 | 1007.6 | ||
| 20260506102433 | 0 | 0.0 | 0.0 | 0.00 | 0.00 | 0.00 | 1007.7 | ||
| 20260506100928 | 51 | 0.0 | 0.0 | 0.00 | 0.00 | 0.00 | 100 | 1007.3 | |
| 20260506095422 | 0 | 0.0 | 0.0 | 0.00 | 0.00 | 0.00 | 1007.2 | ||
| 20260506093916 | 0 | 0.0 | 8.0 | 0.00 | 0.00 | 0.00 | 1006.8 | ||
| 20260506092411 | 0 | 0.0 | 0.0 | 0.00 | 0.00 | 0.00 | 1007.1 | ||
| 20260506092406 | 0 | 0.0 | 0.0 | 0.00 | 0.00 | 0.00 | 1006.9 | ||
| 20260506085357 | 0 | 0.0 | 0.0 | 0.00 | 0.00 | 0.00 | 1006.3 | ||
| 20260506083852 | 0 | 0.0 | 0.0 | 0.00 | 0.00 | 0.00 | 1006.4 | ||
| 20260506082346 | 0 | 0.0 | 0.0 | 0.00 | 0.00 | 0.00 | 1006.5 | ||
| 20260506080840 | 0 | 0.0 | 0.0 | 0.00 | 0.00 | 0.00 | 1006.4 | ||
| 20260506072321 | 0 | 0.0 | 0.0 | 0.00 | 0.00 | 0.00 | 1005.7 | ||
| 20260506070815 | 0 | 0.0 | 0.0 | 0.00 | 0.00 | 0.00 | 1005.6 | ||
| 20260506062256 | 0 | 0.0 | 0.0 | 0.00 | 0.00 | 0.00 | 1005.9 | ||
| 20260506060752 | 0 | 0.0 | 0.0 | 0.00 | 0.00 | 0.00 | 1006.1 | ||
| 20260506050727 | 0 | 0.0 | 0.0 | 0.00 | 0.00 | 0.00 | 1006.4 | ||
| 20260506042207 | 0 | 0.0 | 0.0 | 0.00 | 0.00 | 0.00 | 1006.9 | ||
| 20260506040702 | 0 | 0.0 | 0.0 | 0.00 | 0.00 | 0.00 | 1006.7 | ||
| 20260506035155 | 0 | 0.0 | 0.0 | 0.00 | 0.00 | 0.00 | 1007.0 | ||
| 20260506033650 | 0 | 0.0 | 0.0 | 0.00 | 0.00 | 0.00 | 1007.3 | ||
| 20260506032142 | 0 | 0.0 | 0.0 | 0.00 | 0.00 | 0.00 | 1007.4 |